Regional Weather Roundup
Issued by NWS

Home | Current Version | Previous Version | Text Only | Print | Product List | Glossary On
Versions: 1 2 3 4 5 6 7 8 9 10 11 12 13 14 15 16 17 18 19 20 21 22 23 24 25 26 27 28 29 30 31 32 33 34 35 36 37 38 39 40 41 42 43 44 45 46 47 48 49 50
000
ASUS43 KDTX 240701
RWRMI
MICHIGAN HOURLY REGIONAL WEATHER ROUNDUP
NATIONAL WEATHER SERVICE DETROIT/PONTIAC MI
300 AM EDT TUE OCT 24 2017

NOTE: "FAIR" INDICATES FEW OR NO CLOUDS BELOW 12,000 FEET WITH NO
SIGNIFICANT WEATHER AND/OR OBSTRUCTION TO VISIBILITY.

MIZ047>049-052>055-059>063-066>070-074>076-081>083-240800-
SOUTHEAST LOWER MICHIGAN

CITY           SKY/WX    TMP DP  RH WIND       PRES   REMARKS
ADRIAN         LGT RAIN  47  43  86 VRB3      29.55F
ALMA           RAIN      46  45  93 SW9       29.45R
ANN ARBOR      LGT RAIN  48  46  93 SW13      29.54R
BAD AXE        LGT SNOW  48  46  92 SW22G36   29.32R
CARO           DRIZZLE   48  45  91 SW16G29   29.38R
DETROIT CITY   CLOUDY    52  48  86 W17G26    29.52R
DETROIT        CLOUDY    49  45  86 W13G23    29.54R
FLINT          LGT RAIN  47  43  86 W16G28    29.48R
GROSSE ILE     CLOUDY    50  44  80 W15G22    29.54R
HILLSDALE      CLOUDY    46  43  87 SW9       29.54S
HOWELL         LGT RAIN  46  45  97 SW9       29.51R

CITY           SKY/WX    TMP DP  RH WIND       PRES   REMARKS
JACKSON        LGT RAIN  48  48 100 SW6       29.52F
LAMBERTVILLE   DRIZZLE   50  45  81 W10       29.57F
LANSING        LGT RAIN  48  45  89 SW16G23   29.50S
LAPEER         DRIZZLE   48  47  94 W15G25    29.45R
MASON          LGT RAIN  48  46  90 SW7       29.51S
MONROE         DRIZZLE   50  46  86 W7        29.55S
MT. CLEMENS    CLOUDY    51  49  93 W18G24    29.47R
PONTIAC        LGT RAIN  47  45  93 W15G28    29.48R
PORT HOPE        N/A     49  46  90 S14G33    29.25R
PORT HURON     CLOUDY    54  48  82 SW8G20    29.45R
TRI CITIES     LGT RAIN  48  47  96 W22G32    29.39R
MIDLAND        LGT RAIN  48  46  93 SW14G26   29.37R
TROY           CLOUDY    49  45  85 SW12G26   29.52R
SAGINAW HB     LGT RAIN  46  45  93 SW20G25   29.39R
$$
MIZ043>046-050>051-056>058-064>065-071>073-077>080-240800-
SOUTHWEST LOWER MICHIGAN

CITY           SKY/WX    TMP DP  RH WIND       PRES   REMARKS
BATTLE CREEK   CLOUDY    50  49  96 SW8       29.51F
BENTON HARBOR  LGT RAIN  53  48  83 W12G18    29.51F
BIG RAPIDS     MIX PCPN  46  43  90 W13G22    29.43R
COLDWATER      CLOUDY    49  48  97 SW7       29.54F
FREMONT        LGT RAIN  46  46  98 W6        29.47F
HOLLAND        CLOUDY    50  45  83 SW3       29.50F
GRAND RAPIDS   LGT RAIN  48  48 100 SW6       29.49F
IONIA          RAIN      48  46  95 W14       29.48S
KALAMAZOO      CLOUDY    50  46  86 SW10      29.51F
LUDINGTON      RAIN      47  42  84 NW10      29.45S
MARSHALL       CLOUDY    49  48  97 SW8       29.51F
MOUNT PLEASANT LGT RAIN  48  44  88 W10G20    29.40R
MUSKEGON       LGT RAIN  51  41  68 NW14      29.48F
SOUTH HAVEN    CLOUDY    55  48  77 W8        29.49F
$$
MIZ016>042-240800-
NORTHERN LOWER MICHIGAN

CITY           SKY/WX    TMP DP  RH WIND       PRES   REMARKS
ALPENA         CLOUDY    56  56 100 SE8G17    29.11F
BEAVER ISLAND  MIX PCPN  47  45  93 NW17G30   29.27F
BELLAIRE       MIX PCPN  46  44  91 NW8G20    29.27F
CADILLAC       MIX PCPN  43  41  94 W15G28    29.36S
CHARLEVOIX     RAIN      47  47 100 NW29G37   29.26F
FRANKFORT      RAIN      49  47  93 N10G20    29.40S
GAYLORD        RAIN      45  43  93 W13G28    29.17F FOG
GRAYLING       MIX PCPN  46  43  90 W16G23    29.23F
HARBOR SPRINGS LGT RAIN  47  46  95 W9G20     29.16F
HOUGHTON LAKE  HVY RAIN  47  44  90 W22G31    29.27F FOG
MANISTEE       RAIN      48  44  86 NW15G23   29.42F
OSCODA         LGT RAIN  55  53  94 S14G22    29.10F
PELLSTON       RAIN      48  46  93 NW18G26   29.14F FOG
ROGERS CITY    LGT RAIN  52  51  97 E3        29.12F
TRAVERSE CITY  RAIN      48  44  86 W17G28    29.33F
$$
MIZ007>008-015-240800-
EASTERN UPPER MICHIGAN

CITY           SKY/WX    TMP DP  RH WIND       PRES   REMARKS
KINROSS        LGT RAIN  50  49  96 N13       29.14  FOG
MACKINAC ISLAN LGT RAIN  50  50 100 N16G26    29.11F
NEWBERRY       MIX PCPN  44  43  97 N23G32    29.23F
S. S. MARIE    RAIN      53  52  96 NE6       29.15F FOG
MUNISING         N/A     49  48  97 N22G32    29.40F
$$
MIZ004>006-011>014-085-240800-
CENTRAL UPPER MICHIGAN

CITY           SKY/WX    TMP DP  RH WIND       PRES   REMARKS
MANISTIQUE     LGT SNOW  43  38  81 NW21G28   29.33F
ESCANABA       LGT RAIN  47  44  90 NW10      29.41F
MENOMINEE      LGT RAIN  47  43  86 N7        29.46F
SAWYER-GWINN   FLURRIES  46  41  82 N16       29.45F
$$
MIZ001>003-009>011-084-240800-
WESTERN UPPER MICHIGAN

CITY           SKY/WX    TMP DP  RH WIND       PRES   REMARKS
IRON MOUNTAIN  CLOUDY    49  39  68 NW14      29.47F
HOUGHTON       CLOUDY    50  44  80 N13       29.54F
COPPER HARBOR    N/A     52  45  77 NE18G24   29.52F
IRONWOOD       CLOUDY    44  41  89 NW15G25   29.64F
$$

ABBREVIATIONS USED IN REMARKS
   TC - TEMPERATURE IN CELSIUS
  WCI - WIND CHILL INDEX
   HX - HEAT INDEX
  VSB - VISIBILITY





USA.gov is the U.S. government's official web portal to all federal, state and local government web resources and services.